Location: ????????
(60.5616°N, 46.8254°E)
Time: 18:55:43
(UTC+00:00)

SeaSat 1 - Pass Details

Date: 18 February 2020
Orbit: 744 x 748 km, 108.0° (Epoch: 29 March)

Event Time Altitude Azimuth Distance (km) Brightness Sun altitude
Exits shadow 14:55:45 - 42° (NE) 2,848 5.0 -8.8°
Reaches altitude 10° 14:57:15 10° 36° (NE) 2,279 4.5 -9.0°
Maximum altitude 15:01:43 35° 332° (NNW) 1,194 3.7 -9.5°
Drops below altitude 10° 15:06:11 10° 268° (W) 2,274 6.6 -10.1°
Sets 15:08:36 0° 259° (W) 3,196 7.9 -10.4°
